Regional Weather Roundup
Issued by NWS

Home | Current Version | Previous Version | Text Only | Print | Product List | Glossary On
Versions: 1 2 3 4 5 6 7 8 9 10 11 12 13 14 15 16 17 18 19 20 21 22 23 24 25 26 27 28 29 30 31 32 33 34 35 36 37 38 39 40 41 42 43 44 45 46 47 48 49 50
000
ASUS46 KPQR 311010
RWROR

OREGON REGIONAL WEATHER ROUNDUP
NATIONAL WEATHER SERVICE PORTLAND OR
300 AM PDT SUN JUL 31 2016

NOTE: "FAIR" INDICATES FEW OR NO CLOUDS BELOW 12,000 FEET WITH
NO SIGNIFICANT WEATHER AND/OR OBSTRUCTIONS TO VISIBILITY.

ORZ001>013-311100-
NORTHWEST OREGON


CITY           SKY/WX    TMP DP  RH WIND       PRES   REMARKS
ASTORIA        CLOUDY    60  55  83 W6        30.04S
NEWPORT        MOCLDY    55  52  88 N3        30.09S
PORTLAND       CLOUDY    61  49  64 CALM      30.04S
VANCOUVER WA   CLOUDY    61  50  67 CALM      30.04S
SCAPPOOSE      CLOUDY    58  51  78 S3        30.03S
HILLSBORO      CLOUDY    60  32  34 CALM      30.04R
AURORA         CLEAR     53  47  79 CALM      30.06R
MCMINNVILLE    CLEAR     52  47  83 CALM      30.06R
SALEM          CLEAR     56  49  77 NW6       30.04S
CORVALLIS        N/A     54  48  82 NW7       30.05S
EUGENE         CLEAR     49  44  83 CALM      30.04R
$$

ORZ021-028-311100-
SOUTHWEST OREGON


CITY           SKY/WX    TMP DP  RH WIND       PRES   REMARKS
NORTH BEND     CLEAR     57  52  82 NE6       30.04S
BROOKINGS      CLEAR     53  51  93 CALM      29.85F
ROSEBURG       CLEAR     65  46  50 N7        29.99S
SEXTON SUMMIT  CLEAR     52  47  83 N14       30.01F
MEDFORD        CLEAR     65  43  44 CALM      29.94R
$$

ORZ014>016-041-311100-
COLUMBIA GORGE


CITY           SKY/WX    TMP DP  RH WIND       PRES   REMARKS
TROUTDALE      CLOUDY    61  51  70 CALM      30.04S
THE DALLES     CLEAR     62  45  53 NW22G30   29.89R
$$

ORZ029>031-041-044-049-050-061>064-502-503-505>511-311100-
EASTERN OREGON


CITY           SKY/WX    TMP DP  RH WIND       PRES   REMARKS
REDMOND        CLEAR     48  31  51 CALM      29.99S
BEND           CLEAR     55  37  50 SW9       29.99F
PRINEVILLE     CLEAR     57  36  44 W7        29.99S
KLAMATH FALLS  CLEAR     59  48  67 N5        30.00S
LAKEVIEW       CLEAR    N/A N/A N/A N6        30.04R
HERMISTON      CLEAR     66  42  41 W14G22    29.83R
PENDLETON      CLEAR     63  35  35 CALM      29.87R
JOHN DAY       CLEAR     60  26  27 SW6       29.98R
MEACHAM        NOT AVBL
LA GRANDE      CLEAR     57  25  28 CALM      29.89S
BAKER CITY     CLEAR     48  33  56 E5        29.92R
BURNS          CLEAR     54  23  30 W9        29.99R
ROME             N/A     61  20  20 S6        29.92R
ONTARIO        CLEAR     69  29  22 W8        29.82R
$$



USA.gov is the U.S. government's official web portal to all federal, state and local government web resources and services.